Home > Weather > Iquique > Past weeks

Flag for Chile Weather for the Past 2 Weeks in Iquique, Chile

Now
72 °F

Sunny.


Feels Like: 76 °F
Forecast: 65 / 73 °F
Wind: 9 mph from Southwest

Location: Iquique / Diego Arac

Current Time: May 1, 2016 at 4:52:30 PM

Latest Report: May 1, 2016 at 4:00 PM


Visibility: 10 mi

Pressure: 29.95 "Hg

Humidity: 61%

Dew Point: 57 °F

Location of IquiqueLocation

Historic Weather in Iquique — Graph

°F

Iquique Temperature Yesterday

Maximum temperature yesterday: 70 °F (at 1:00 PM)
Minimum temperature yesterday: 59 °F (at 6:00 AM)
Average temperature yesterday: 65 °F

High & Low Weather Summary for the Past Weeks

 TemperatureHumidityPressure
High73 °F (Apr 17, 2:00 PM)88% (Apr 20, 3:00 AM)30.09 "Hg (Apr 20, 3:00 AM)
Low59 °F (Apr 21, 3:00 AM)53% (Apr 22, 1:00 PM)29.83 "Hg (Apr 30, 7:00 AM)
Average67 °F70%29.96 "Hg
* Reported Apr 16 3:00 PM — May 1 3:00 PM, Iquique, Weather by CustomWeather, © 2016

Note: Actual official high and low records may vary slightly from our data, if they occured in-between our weather recording intervals... More about our weather records

Advertising

Iquique Weather History for the Previous 24 Hours

Scroll right to see more
 ConditionsComfort  
Time TempWeatherWind HumidityBarometerVisibility
3:00 PM
Sun, May 1
72 °FScattered clouds.14 mph65%29.98 "HgN/A
2:00 PM73 °FPartly sunny.5 mph57%29.98 "HgN/A
1:00 PM70 °FOvercast.8 mph64%30.01 "HgN/A
12:00 PM70 °FPartly sunny.5 mph64%30.01 "HgN/A
11:00 AM68 °FPartly sunny.6 mph69%30.01 "HgN/A
10:00 AM68 °FPartly sunny.5 mph69%29.98 "HgN/A
9:00 AM66 °FPartly sunny.3 mph73%29.98 "HgN/A
8:00 AM66 °FSunny.6 mph68%29.95 "Hg10 mi
7:00 AM66 °FPassing clouds.10 mph68%29.95 "HgN/A
6:00 AM68 °FOvercast.6 mph69%29.95 "HgN/A
5:00 AM68 °FOvercast.6 mph69%29.95 "HgN/A
4:00 AM68 °FOvercast.5 mph69%29.98 "HgN/A
3:00 AM68 °FOvercast.6 mph69%29.98 "HgN/A
2:00 AM68 °FPassing clouds.6 mph69%29.98 "HgN/A
1:00 AM66 °FClear.5 mph73%29.98 "Hg10 mi
12:00 AM64 °FClear.No wind73%29.98 "Hg10 mi
11:00 PM
Sat, Apr 30
64 °FClear.3 mph73%29.98 "Hg10 mi
9:00 PM64 °FClear.5 mph73%29.92 "Hg10 mi
8:00 PM66 °FClear.7 mph78%29.89 "Hg10 mi
7:00 PM68 °FSunny.10 mph69%29.86 "Hg10 mi
6:00 PM68 °FSunny.12 mph69%29.86 "Hg10 mi
5:00 PM68 °FSunny.13 mph69%29.86 "Hg10 mi
4:00 PM70 °FSunny.9 mph64%29.83 "Hg10 mi
Weather by CustomWeather, © 2016

See weather overviewHow to use our weather pages